Tracking 18785 objects as of 23-July-2017
HD Live streaming from Space Station
objects crossing your sky now
MAYAK may become the brightest orbital object in the night sky!
Where is MAYAK now?
How to spot MAYAK

OPS 9317 (IDSCS 7)

Track OPS 9317 (IDSCS 7) now!
OPS 9317 (IDSCS 7) is classified as:


NORAD ID: 2221
Int'l Code: 1966-053H
Perigee: 33,725.8 km
Apogee: 34,354.4 km
Inclination: 2.4 °
Period: 1,347.4 minutes
Semi major axis: 40411 km
RCS: 0.2512 m2 (medium)
Launch date: June 16, 1966
Source: United States (US)
Launch site: AIR FORCE EASTERN TEST RANGE (AFETR)
Your satellite tracking list
Your tracking list is empty





NASA's NSSDC Master Catalog

Two Line Element Set (TLE):
1  2221U 66053H   17192.41368740 -.00000047 +00000-0 +00000-0 0  9992
2  2221 002.4201 058.3934 0077773 095.1061 088.1182 01.06868970016159
Source of the keplerian elements: AFSPC